Data No,UTC Date,UTC Time,Latitude,Longitude,Course(deg),Temp(degC),Sal(psu)
699,2023/2/15,11:38,35-35.69N,139-47.16E,201,10.264,
700,2023/2/15,11:39,35-35.49N,139-47.11E,183,10.364,
701,2023/2/15,11:40,35-35.27N,139-47.18E,158,10.274,
702,2023/2/15,11:41,35-35.10N,139-47.35E,137,10.217,
703,2023/2/15,11:42,35-34.95N,139-47.54E,136,10.234,
704,2023/2/15,11:43,35-34.81N,139-47.72E,129,10.102,
705,2023/2/15,11:44,35-34.65N,139-47.97E,129,10.053,
706,2023/2/15,11:45,35-34.52N,139-48.16E,128,9.962,
707,2023/2/15,11:46,35-34.37N,139-48.39E,129,9.859,
708,2023/2/15,11:47,35-34.22N,139-48.60E,129,9.749,
709,2023/2/15,11:48,35-34.07N,139-48.83E,129,9.822,
710,2023/2/15,11:49,35-33.92N,139-49.06E,129,9.822,
711,2023/2/15,11:50,35-33.77N,139-49.28E,128,9.852,
712,2023/2/15,11:51,35-33.62N,139-49.51E,129,9.796,
713,2023/2/15,11:52,35-33.45N,139-49.75E,130,9.735,
714,2023/2/15,11:53,35-33.27N,139-50.01E,130,9.555,
715,2023/2/15,11:54,35-33.09N,139-50.26E,130,9.539,
716,2023/2/15,11:55,35-32.87N,139-50.54E,139,9.521,
717,2023/2/15,11:56,35-32.62N,139-50.66E,163,9.528,
718,2023/2/15,11:57,35-32.33N,139-50.71E,173,9.558,
719,2023/2/15,11:58,35-32.04N,139-50.71E,180,9.631,
720,2023/2/15,11:59,35-31.69N,139-50.71E,179,9.61,
721,2023/2/15,12:00,35-31.42N,139-50.71E,180,9.644,
722,2023/2/15,12:01,35-31.10N,139-50.71E,181,9.69,
723,2023/2/15,12:02,35-30.77N,139-50.71E,179,9.817,
724,2023/2/15,12:03,35-30.45N,139-50.70E,180,9.893,
725,2023/2/15,12:04,35-30.12N,139-50.69E,183,9.919,
726,2023/2/15,12:05,35-29.83N,139-50.59E,198,9.928,
727,2023/2/15,12:06,35-29.56N,139-50.41E,209,9.936,
728,2023/2/15,12:07,35-29.29N,139-50.19E,218,9.953,
729,2023/2/15,12:08,35-29.10N,139-49.94E,227,9.951,
730,2023/2/15,12:09,35-28.92N,139-49.66E,229,9.927,
731,2023/2/15,12:10,35-28.70N,139-49.35E,229,9.909,
732,2023/2/15,12:11,35-28.51N,139-49.08E,229,9.916,
733,2023/2/15,12:12,35-28.31N,139-48.79E,229,9.898,
734,2023/2/15,12:13,35-28.10N,139-48.49E,229,9.877,
735,2023/2/15,12:14,35-27.88N,139-48.19E,229,9.841,
736,2023/2/15,12:15,35-27.69N,139-47.90E,229,9.874,
737,2023/2/15,12:16,35-27.48N,139-47.60E,230,9.866,
738,2023/2/15,12:17,35-27.28N,139-47.30E,230,9.841,
739,2023/2/15,12:18,35-27.04N,139-46.96E,230,9.843,
740,2023/2/15,12:19,35-26.86N,139-46.70E,230,9.842,
741,2023/2/15,12:20,35-26.66N,139-46.40E,230,9.885,
742,2023/2/15,12:21,35-26.44N,139-46.08E,230,9.936,
743,2023/2/15,12:22,35-26.26N,139-45.81E,230,9.926,
744,2023/2/15,12:23,35-26.05N,139-45.50E,230,9.907,
745,2023/2/15,12:24,35-25.85N,139-45.20E,230,9.886,
746,2023/2/15,12:25,35-25.65N,139-44.91E,230,9.904,
747,2023/2/15,12:26,35-25.45N,139-44.61E,230,9.932,
748,2023/2/15,12:27,35-25.25N,139-44.31E,230,9.982,
749,2023/2/15,12:28,35-25.05N,139-44.00E,230,9.988,
750,2023/2/15,12:29,35-24.85N,139-43.70E,230,10.007,
751,2023/2/15,12:30,35-24.62N,139-43.37E,230,10.025,
752,2023/2/15,12:31,35-24.36N,139-43.16E,209,10.033,
753,2023/2/15,12:32,35-24.09N,139-42.99E,207,10.055,
754,2023/2/15,12:33,35-23.83N,139-42.82E,207,10.046,
755,2023/2/15,12:34,35-23.54N,139-42.64E,207,10.055,
756,2023/2/15,12:35,35-23.27N,139-42.47E,207,10.072,
757,2023/2/15,12:36,35-22.99N,139-42.31E,202,10.133,
758,2023/2/15,12:37,35-22.73N,139-42.29E,178,10.17,
759,2023/2/15,12:38,35-22.51N,139-42.31E,175,10.225,
760,2023/2/15,12:39,35-22.26N,139-42.34E,176,10.228,
761,2023/2/15,12:40,35-22.02N,139-42.36E,176,10.239,
762,2023/2/15,12:41,35-21.80N,139-42.38E,176,10.267,
763,2023/2/15,12:42,35-21.55N,139-42.40E,175,10.122,
764,2023/2/15,12:43,35-21.32N,139-42.43E,175,10.014,
765,2023/2/15,12:44,35-21.08N,139-42.45E,175,9.998,
766,2023/2/15,12:45,35-20.87N,139-42.47E,175,9.992,
767,2023/2/15,12:46,35-20.62N,139-42.50E,174,10.001,
768,2023/2/15,12:47,35-20.38N,139-42.52E,175,10.088,
769,2023/2/15,12:48,35-20.16N,139-42.55E,174,10.131,
770,2023/2/15,12:49,35-19.94N,139-42.57E,173,10.244,
771,2023/2/15,12:50,35-19.75N,139-42.68E,150,10.345,
772,2023/2/15,12:51,35-19.60N,139-42.81E,145,10.383,
773,2023/2/15,12:52,35-19.43N,139-42.96E,144,10.494,
774,2023/2/15,12:53,35-19.26N,139-43.10E,145,10.615,
775,2023/2/15,12:54,35-19.10N,139-43.24E,145,10.833,
776,2023/2/15,12:55,35-18.92N,139-43.39E,145,11.053,
777,2023/2/15,12:56,35-18.74N,139-43.54E,145,11.049,
778,2023/2/15,12:57,35-18.57N,139-43.69E,146,11.202,
779,2023/2/15,12:58,35-18.42N,139-43.81E,147,11.32,
780,2023/2/15,12:59,35-18.22N,139-43.97E,147,11.426,
781,2023/2/15,13:00,35-18.04N,139-44.10E,148,11.477,
782,2023/2/15,13:01,35-17.87N,139-44.25E,147,11.583,
783,2023/2/15,13:02,35-17.72N,139-44.37E,146,11.724,
784,2023/2/15,13:03,35-17.55N,139-44.50E,146,11.889,
785,2023/2/15,13:04,35-17.34N,139-44.66E,147,11.931,
786,2023/2/15,13:05,35-17.17N,139-44.80E,147,11.96,
787,2023/2/15,13:06,35-17.00N,139-44.94E,146,11.918,
788,2023/2/15,13:07,35-16.82N,139-45.08E,147,11.925,
789,2023/2/15,13:08,35-16.65N,139-45.22E,147,12.528,
790,2023/2/15,13:09,35-16.46N,139-45.36E,146,12.243,
791,2023/2/15,13:10,35-16.28N,139-45.49E,149,12.042,
792,2023/2/15,13:11,35-16.11N,139-45.64E,147,13.274,
793,2023/2/15,13:12,35-15.92N,139-45.78E,147,13.599,
794,2023/2/15,13:13,35-15.75N,139-45.89E,150,13.625,
795,2023/2/15,13:14,35-15.56N,139-46.01E,152,13.467,
796,2023/2/15,13:15,35-15.36N,139-46.11E,160,13.126,
797,2023/2/15,13:16,35-15.16N,139-46.15E,175,12.945,
798,2023/2/15,13:17,35-14.94N,139-46.15E,179,12.946,
799,2023/2/15,13:18,35-14.73N,139-46.15E,180,13.042,
800,2023/2/15,13:19,35-14.51N,139-46.15E,178,13.103,
801,2023/2/15,13:20,35-14.30N,139-46.16E,179,13.326,
802,2023/2/15,13:21,35-14.09N,139-46.16E,179,13.567,
803,2023/2/15,13:22,35-13.87N,139-46.16E,180,13.647,
804,2023/2/15,13:23,35-13.66N,139-46.17E,181,13.851,
805,2023/2/15,13:24,35-13.44N,139-46.16E,181,14.011,
806,2023/2/15,13:25,35-13.25N,139-46.16E,179,14.153,
807,2023/2/15,13:26,35-13.04N,139-46.15E,182,14.074,
808,2023/2/15,13:27,35-12.80N,139-46.14E,185,14.22,
809,2023/2/15,13:28,35-12.56N,139-46.04E,198,14.548,
810,2023/2/15,13:29,35-12.29N,139-45.93E,198,14.858,
811,2023/2/15,13:30,35-12.01N,139-45.82E,197,15.022,
812,2023/2/15,13:31,35-11.75N,139-45.70E,201,14.887,
813,2023/2/15,13:32,35-11.46N,139-45.56E,200,15.319,
814,2023/2/15,13:33,35-11.19N,139-45.44E,201,15.41,
815,2023/2/15,13:34,35-10.91N,139-45.31E,201,15.647,
816,2023/2/15,13:35,35-10.63N,139-45.17E,198,15.838,
817,2023/2/15,13:36,35-10.35N,139-45.06E,199,16.047,
818,2023/2/15,13:37,35-10.06N,139-44.96E,196,16.106,
819,2023/2/15,13:38,35-09.77N,139-44.85E,196,16.176,
820,2023/2/15,13:39,35-09.45N,139-44.75E,194,16.207,
821,2023/2/15,13:40,35-09.16N,139-44.66E,194,16.228,
822,2023/2/15,13:41,35-08.91N,139-44.58E,194,16.266,
823,2023/2/15,13:42,35-08.62N,139-44.49E,194,16.309,
824,2023/2/15,13:43,35-08.34N,139-44.41E,194,16.329,
825,2023/2/15,13:44,35-08.04N,139-44.31E,194,16.346,
826,2023/2/15,13:45,35-07.75N,139-44.22E,194,16.319,
827,2023/2/15,13:46,35-07.47N,139-44.14E,191,16.369,
828,2023/2/15,13:47,35-07.16N,139-44.06E,192,16.428,
829,2023/2/15,13:48,35-06.88N,139-43.98E,191,16.465,
830,2023/2/15,13:49,35-06.59N,139-43.92E,188,16.443,
831,2023/2/15,13:50,35-06.29N,139-43.85E,189,16.464,
832,2023/2/15,13:51,35-06.00N,139-43.79E,189,16.538,
833,2023/2/15,13:52,35-05.70N,139-43.73E,188,16.538,
834,2023/2/15,13:53,35-05.41N,139-43.67E,188,16.5,
835,2023/2/15,13:54,35-05.11N,139-43.60E,188,16.476,
836,2023/2/15,13:55,35-04.82N,139-43.54E,188,16.424,
837,2023/2/15,13:56,35-04.52N,139-43.49E,187,16.367,
838,2023/2/15,13:57,35-04.22N,139-43.44E,188,16.363,
839,2023/2/15,13:58,35-03.93N,139-43.39E,188,16.4,
840,2023/2/15,13:59,35-03.64N,139-43.33E,188,16.422,
841,2023/2/15,14:00,35-03.33N,139-43.27E,188,16.439,
842,2023/2/15,14:01,35-03.04N,139-43.21E,188,16.463,
843,2023/2/15,14:02,35-02.74N,139-43.15E,188,16.5,
844,2023/2/15,14:03,35-02.45N,139-43.10E,188,16.53,
845,2023/2/15,14:04,35-02.16N,139-43.05E,189,16.528,
846,2023/2/15,14:05,35-01.86N,139-42.98E,189,16.514,
847,2023/2/15,14:06,35-01.57N,139-42.93E,189,16.564,
848,2023/2/15,14:07,35-01.27N,139-42.87E,189,16.582,
849,2023/2/15,14:08,35-00.98N,139-42.80E,190,16.625,
850,2023/2/15,14:09,35-00.70N,139-42.74E,190,16.67,
851,2023/2/15,14:10,35-00.40N,139-42.68E,189,16.722,
852,2023/2/15,14:11,35-00.12N,139-42.62E,189,16.771,
853,2023/2/15,14:12,34-59.82N,139-42.57E,189,16.731,
854,2023/2/15,14:13,34-59.53N,139-42.51E,188,16.54,
855,2023/2/15,14:14,34-59.25N,139-42.46E,189,16.495,
856,2023/2/15,14:15,34-58.96N,139-42.40E,189,16.546,
857,2023/2/15,14:16,34-58.67N,139-42.35E,189,16.522,
858,2023/2/15,14:17,34-58.39N,139-42.31E,182,16.516,
859,2023/2/15,14:18,34-58.12N,139-42.34E,172,16.488,
860,2023/2/15,14:19,34-57.85N,139-42.43E,162,16.502,
861,2023/2/15,14:20,34-57.60N,139-42.56E,152,16.531,
862,2023/2/15,14:21,34-57.37N,139-42.75E,143,16.56,
863,2023/2/15,14:22,34-57.14N,139-42.96E,142,16.591,
864,2023/2/15,14:23,34-56.93N,139-43.16E,142,16.616,
865,2023/2/15,14:24,34-56.69N,139-43.37E,143,16.659,
866,2023/2/15,14:25,34-56.46N,139-43.57E,144,16.84,
867,2023/2/15,14:26,34-56.23N,139-43.77E,144,16.942,
868,2023/2/15,14:27,34-55.99N,139-43.97E,145,16.957,
869,2023/2/15,14:28,34-55.76N,139-44.17E,145,16.975,
870,2023/2/15,14:29,34-55.52N,139-44.37E,145,17.004,
871,2023/2/15,14:30,34-55.28N,139-44.58E,145,17.07,
872,2023/2/15,14:31,34-55.04N,139-44.78E,144,17.08,
873,2023/2/15,14:32,34-54.81N,139-44.98E,144,17.097,
874,2023/2/15,14:33,34-54.56N,139-45.19E,144,17.121,
875,2023/2/15,14:34,34-54.33N,139-45.39E,144,17.222,
876,2023/2/15,14:35,34-54.09N,139-45.60E,143,17.364,
877,2023/2/15,14:36,34-53.85N,139-45.81E,144,17.474,
878,2023/2/15,14:37,34-53.62N,139-46.00E,144,17.629,
879,2023/2/15,14:38,34-53.39N,139-46.20E,144,17.764,
880,2023/2/15,14:39,34-53.15N,139-46.40E,144,17.814,
881,2023/2/15,14:40,34-52.91N,139-46.61E,144,17.865,
882,2023/2/15,14:41,34-52.67N,139-46.81E,144,17.891,
883,2023/2/15,14:42,34-52.44N,139-47.01E,144,17.919,
884,2023/2/15,14:43,34-52.20N,139-47.22E,143,17.946,
885,2023/2/15,14:44,34-51.99N,139-47.44E,136,17.941,
886,2023/2/15,14:45,34-51.81N,139-47.71E,125,17.942,
887,2023/2/15,14:46,34-51.69N,139-47.99E,115,17.948,
888,2023/2/15,14:47,34-51.60N,139-48.30E,106,17.968,
889,2023/2/15,14:48,34-51.52N,139-48.62E,107,17.993,
890,2023/2/15,14:49,34-51.44N,139-48.93E,107,18.008,
891,2023/2/15,14:50,34-51.35N,139-49.26E,105,18.028,
892,2023/2/15,14:51,34-51.28N,139-49.59E,104,18.039,
893,2023/2/15,14:52,34-51.22N,139-49.91E,102,18.056,
894,2023/2/15,14:53,34-51.16N,139-50.24E,103,18.069,
895,2023/2/15,14:54,34-51.09N,139-50.60E,103,18.089,
896,2023/2/15,14:55,34-51.02N,139-50.92E,103,18.096,
897,2023/2/15,14:56,34-50.97N,139-51.25E,99,18.092,
898,2023/2/15,14:57,34-50.96N,139-51.55E,90,18.087,
899,2023/2/15,14:58,34-50.96N,139-51.88E,89,18.089,
900,2023/2/15,14:59,34-50.96N,139-52.22E,90,18.083,
901,2023/2/15,15:00,34-50.95N,139-52.55E,91,18.075,
902,2023/2/15,15:01,34-50.95N,139-52.88E,91,18.061,
903,2023/2/15,15:02,34-50.94N,139-53.21E,91,18.06,
904,2023/2/15,15:03,34-50.95N,139-53.54E,85,18.052,
905,2023/2/15,15:04,34-50.98N,139-53.86E,84,18.04,
906,2023/2/15,15:05,34-51.00N,139-54.19E,84,18.014,
907,2023/2/15,15:06,34-51.03N,139-54.52E,85,17.99,
908,2023/2/15,15:07,34-51.05N,139-54.85E,85,17.981,
909,2023/2/15,15:08,34-51.07N,139-55.19E,85,17.977,
910,2023/2/15,15:09,34-51.09N,139-55.51E,85,17.969,
911,2023/2/15,15:10,34-51.11N,139-55.85E,86,17.943,
912,2023/2/15,15:11,34-51.14N,139-56.17E,81,17.922,
913,2023/2/15,15:12,34-51.20N,139-56.47E,73,17.908,
914,2023/2/15,15:13,34-51.28N,139-56.81E,74,17.901,
915,2023/2/15,15:14,34-51.35N,139-57.10E,73,17.905,
916,2023/2/15,15:15,34-51.43N,139-57.41E,74,17.925,
917,2023/2/15,15:16,34-51.50N,139-57.73E,74,17.916,
918,2023/2/15,15:17,34-51.57N,139-58.03E,73,17.938,
919,2023/2/15,15:18,34-51.65N,139-58.34E,73,17.972,
920,2023/2/15,15:19,34-51.72N,139-58.64E,73,17.994,
921,2023/2/15,15:20,34-51.79N,139-58.96E,74,17.994,
922,2023/2/15,15:21,34-51.87N,139-59.27E,74,17.998,
923,2023/2/15,15:22,34-51.93N,139-59.56E,73,18.002,
924,2023/2/15,15:23,34-52.01N,139-59.87E,73,18.022,
925,2023/2/15,15:24,34-52.08N,140-00.18E,73,18.067,
926,2023/2/15,15:25,34-52.15N,140-00.48E,73,18.105,
927,2023/2/15,15:26,34-52.22N,140-00.79E,74,18.132,
928,2023/2/15,15:27,34-52.30N,140-01.10E,74,18.152,
929,2023/2/15,15:28,34-52.37N,140-01.41E,74,18.157,
930,2023/2/15,15:29,34-52.44N,140-01.73E,74,18.166,
931,2023/2/15,15:30,34-52.52N,140-02.05E,72,18.165,
932,2023/2/15,15:31,34-52.60N,140-02.33E,71,18.167,
933,2023/2/15,15:32,34-52.68N,140-02.64E,71,18.188,
934,2023/2/15,15:33,34-52.76N,140-02.95E,71,18.205,
935,2023/2/15,15:34,34-52.84N,140-03.25E,71,18.222,
936,2023/2/15,15:35,34-52.93N,140-03.56E,71,18.239,
937,2023/2/15,15:36,34-53.02N,140-03.86E,71,18.266,
938,2023/2/15,15:37,34-53.10N,140-04.17E,71,18.277,
939,2023/2/15,15:38,34-53.18N,140-04.47E,71,18.291,
940,2023/2/15,15:39,34-53.27N,140-04.77E,70,18.305,
941,2023/2/15,15:40,34-53.36N,140-05.07E,71,18.32,
942,2023/2/15,15:41,34-53.44N,140-05.37E,71,18.319,
943,2023/2/15,15:42,34-53.54N,140-05.71E,70,18.32,
944,2023/2/15,15:43,34-53.63N,140-06.02E,69,18.31,
945,2023/2/15,15:44,34-53.72N,140-06.31E,68,18.299,
946,2023/2/15,15:45,34-53.82N,140-06.57E,66,18.286,
947,2023/2/15,15:46,34-53.91N,140-06.85E,67,18.274,
948,2023/2/15,15:47,34-54.01N,140-07.15E,67,18.271,
949,2023/2/15,15:48,34-54.11N,140-07.44E,67,18.265,
950,2023/2/15,15:49,34-54.22N,140-07.72E,65,18.239,
951,2023/2/15,15:50,34-54.32N,140-08.01E,67,18.236,
952,2023/2/15,15:51,34-54.43N,140-08.29E,61,18.223,
953,2023/2/15,15:52,34-54.56N,140-08.56E,60,18.232,
954,2023/2/15,15:53,34-54.69N,140-08.83E,60,18.24,
955,2023/2/15,15:54,34-54.81N,140-09.09E,61,18.23,
956,2023/2/15,15:55,34-54.94N,140-09.37E,60,18.221,
957,2023/2/15,15:56,34-55.06N,140-09.63E,59,18.216,
958,2023/2/15,15:57,34-55.19N,140-09.90E,61,18.201,
959,2023/2/15,15:58,34-55.32N,140-10.18E,60,18.202,
960,2023/2/15,15:59,34-55.44N,140-10.44E,59,18.199,
961,2023/2/15,16:00,34-55.57N,140-10.71E,60,18.194,
962,2023/2/15,16:01,34-55.71N,140-11.00E,60,18.178,
963,2023/2/15,16:02,34-55.83N,140-11.26E,60,18.178,
964,2023/2/15,16:03,34-55.96N,140-11.54E,60,18.172,
965,2023/2/15,16:04,34-56.09N,140-11.81E,61,18.166,
966,2023/2/15,16:05,34-56.22N,140-12.07E,56,18.167,
967,2023/2/15,16:06,34-56.36N,140-12.33E,57,18.158,
968,2023/2/15,16:07,34-56.50N,140-12.59E,56,18.155,
969,2023/2/15,16:08,34-56.64N,140-12.85E,57,18.154,
970,2023/2/15,16:09,34-56.77N,140-13.11E,57,18.154,
971,2023/2/15,16:10,34-56.92N,140-13.37E,56,18.149,
972,2023/2/15,16:11,34-57.06N,140-13.64E,57,18.138,
973,2023/2/15,16:12,34-57.19N,140-13.89E,56,18.128,
974,2023/2/15,16:13,34-57.34N,140-14.16E,55,18.14,
975,2023/2/15,16:14,34-57.49N,140-14.42E,55,18.165,
976,2023/2/15,16:15,34-57.63N,140-14.67E,55,18.2,
977,2023/2/15,16:16,34-57.77N,140-14.92E,54,18.225,
978,2023/2/15,16:17,34-57.92N,140-15.18E,56,18.23,
979,2023/2/15,16:18,34-58.06N,140-15.43E,55,18.229,
980,2023/2/15,16:19,34-58.20N,140-15.68E,56,18.248,
981,2023/2/15,16:20,34-58.34N,140-15.94E,55,18.253,
982,2023/2/15,16:21,34-58.49N,140-16.20E,54,18.271,
983,2023/2/15,16:22,34-58.63N,140-16.45E,56,18.293,
984,2023/2/15,16:23,34-58.78N,140-16.71E,55,18.311,
985,2023/2/15,16:24,34-58.93N,140-16.96E,55,18.329,
986,2023/2/15,16:25,34-59.07N,140-17.22E,55,18.334,
987,2023/2/15,16:26,34-59.22N,140-17.49E,55,18.336,
988,2023/2/15,16:27,34-59.36N,140-17.74E,55,18.344,
989,2023/2/15,16:28,34-59.51N,140-18.00E,56,18.351,
990,2023/2/15,16:29,34-59.66N,140-18.27E,56,18.357,
991,2023/2/15,16:30,34-59.80N,140-18.52E,56,18.35,
992,2023/2/15,16:31,34-59.96N,140-18.77E,52,18.361,
993,2023/2/15,16:32,35-00.12N,140-19.02E,50,18.37,
994,2023/2/15,16:33,35-00.28N,140-19.26E,51,18.371,
995,2023/2/15,16:34,35-00.43N,140-19.50E,52,18.371,
996,2023/2/15,16:35,35-00.60N,140-19.75E,51,18.382,
997,2023/2/15,16:36,35-00.76N,140-20.00E,51,18.386,
998,2023/2/15,16:37,35-00.92N,140-20.24E,51,18.4,
999,2023/2/15,16:38,35-01.09N,140-20.50E,51,18.397,
1000,2023/2/15,16:39,35-01.24N,140-20.74E,50,18.397,
1001,2023/2/15,16:40,35-01.40N,140-20.98E,51,18.394,
1002,2023/2/15,16:41,35-01.57N,140-21.24E,51,18.389,
1003,2023/2/15,16:42,35-01.72N,140-21.48E,52,18.395,
1004,2023/2/15,16:43,35-01.89N,140-21.74E,51,18.388,
1005,2023/2/15,16:44,35-02.05N,140-21.99E,51,18.374,
1006,2023/2/15,16:45,35-02.22N,140-22.25E,51,18.375,
1007,2023/2/15,16:46,35-02.39N,140-22.52E,52,18.365,
1008,2023/2/15,16:47,35-02.55N,140-22.76E,52,18.357,
1009,2023/2/15,16:48,35-02.71N,140-23.01E,51,18.314,
1010,2023/2/15,16:49,35-02.91N,140-23.29E,48,18.3,
1011,2023/2/15,16:50,35-03.08N,140-23.52E,47,18.229,
1012,2023/2/15,16:51,35-03.24N,140-23.74E,48,18.206,
1013,2023/2/15,16:52,35-03.42N,140-23.97E,47,18.196,
1014,2023/2/15,16:53,35-03.60N,140-24.22E,47,18.193,
1015,2023/2/15,16:54,35-03.77N,140-24.46E,49,18.192,
1016,2023/2/15,16:55,35-03.96N,140-24.70E,47,18.19,
1017,2023/2/15,16:56,35-04.14N,140-24.96E,49,18.132,
1018,2023/2/15,16:57,35-04.31N,140-25.20E,48,18.121,
1019,2023/2/15,16:58,35-04.49N,140-25.45E,49,18.122,
1020,2023/2/15,16:59,35-04.68N,140-25.71E,49,18.125,
1021,2023/2/15,17:00,35-04.84N,140-25.94E,48,18.128,
1022,2023/2/15,17:01,35-05.02N,140-26.20E,49,18.132,
1023,2023/2/15,17:02,35-05.20N,140-26.43E,45,18.129,
1024,2023/2/15,17:03,35-05.39N,140-26.66E,44,18.128,
1025,2023/2/15,17:04,35-05.58N,140-26.90E,45,18.13,
1026,2023/2/15,17:05,35-05.77N,140-27.12E,45,18.137,
1027,2023/2/15,17:06,35-05.96N,140-27.35E,44,18.136,
1028,2023/2/15,17:07,35-06.16N,140-27.59E,44,18.138,
1029,2023/2/15,17:08,35-06.35N,140-27.81E,44,18.135,
1030,2023/2/15,17:09,35-06.54N,140-28.04E,44,18.134,
1031,2023/2/15,17:10,35-06.73N,140-28.28E,45,18.134,
1032,2023/2/15,17:11,35-06.92N,140-28.51E,44,18.124,
1033,2023/2/15,17:12,35-07.12N,140-28.75E,44,18.119,
1034,2023/2/15,17:13,35-07.32N,140-28.99E,44,18.116,
1035,2023/2/15,17:14,35-07.50N,140-29.21E,45,18.103,
1036,2023/2/15,17:15,35-07.70N,140-29.45E,44,18.11,
1037,2023/2/15,17:16,35-07.90N,140-29.68E,43,18.111,
1038,2023/2/15,17:17,35-08.09N,140-29.90E,45,18.102,
1039,2023/2/15,17:18,35-08.28N,140-30.14E,45,18.099,
1040,2023/2/15,17:19,35-08.47N,140-30.37E,44,18.094,
1041,2023/2/15,17:20,35-08.67N,140-30.61E,43,18.093,
1042,2023/2/15,17:21,35-08.88N,140-30.85E,44,18.081,
1043,2023/2/15,17:22,35-09.08N,140-31.09E,44,18.073,
1044,2023/2/15,17:23,35-09.27N,140-31.33E,44,18.067,
1045,2023/2/15,17:24,35-09.47N,140-31.56E,44,18.06,
1046,2023/2/15,17:25,35-09.67N,140-31.80E,44,18.061,
1047,2023/2/15,17:26,35-09.88N,140-32.05E,43,18.057,
1048,2023/2/15,17:27,35-10.08N,140-32.29E,44,18.049,
1049,2023/2/15,17:28,35-10.28N,140-32.54E,44,18.045,
1050,2023/2/15,17:29,35-10.48N,140-32.77E,43,18.034,
1051,2023/2/15,17:30,35-10.68N,140-33.01E,45,18.025,
1052,2023/2/15,17:31,35-10.89N,140-33.26E,44,18.009,
1053,2023/2/15,17:32,35-11.09N,140-33.50E,45,17.997,
1054,2023/2/15,17:33,35-11.26N,140-33.76E,52,17.985,
1055,2023/2/15,17:34,35-11.43N,140-34.04E,53,17.974,
1056,2023/2/15,17:35,35-11.61N,140-34.33E,53,17.966,
1057,2023/2/15,17:36,35-11.78N,140-34.60E,52,17.966,
1058,2023/2/15,17:37,35-11.96N,140-34.88E,52,17.982,
1059,2023/2/15,17:38,35-12.12N,140-35.15E,53,17.998,
1060,2023/2/15,17:39,35-12.29N,140-35.42E,53,18.009,
1061,2023/2/15,17:40,35-12.46N,140-35.70E,49,18.019,
1062,2023/2/15,17:41,35-12.65N,140-35.96E,48,18.032,
1063,2023/2/15,17:42,35-12.83N,140-36.21E,49,18.039,
1064,2023/2/15,17:43,35-13.01N,140-36.46E,49,18.043,
1065,2023/2/15,17:44,35-13.19N,140-36.73E,50,18.053,
1066,2023/2/15,17:45,35-13.37N,140-36.98E,48,18.056,
1067,2023/2/15,17:46,35-13.55N,140-37.24E,50,18.058,
1068,2023/2/15,17:47,35-13.73N,140-37.49E,47,18.06,
1069,2023/2/15,17:48,35-13.93N,140-37.73E,45,18.059,
1070,2023/2/15,17:49,35-14.13N,140-37.98E,43,18.062,
1071,2023/2/15,17:50,35-14.32N,140-38.20E,43,18.072,
1072,2023/2/15,17:51,35-14.53N,140-38.45E,44,18.071,
1073,2023/2/15,17:52,35-14.73N,140-38.68E,43,18.069,
1074,2023/2/15,17:53,35-14.93N,140-38.91E,43,18.073,
1075,2023/2/15,17:54,35-15.14N,140-39.15E,43,18.081,
1076,2023/2/15,17:55,35-15.35N,140-39.38E,41,18.075,
1077,2023/2/15,17:56,35-15.56N,140-39.60E,41,18.075,
1078,2023/2/15,17:57,35-15.77N,140-39.82E,40,18.082,
1079,2023/2/15,17:58,35-16.01N,140-40.07E,40,18.084,
1080,2023/2/15,17:59,35-16.22N,140-40.29E,38,18.078,
1081,2023/2/15,18:00,35-16.43N,140-40.48E,37,18.078,
1082,2023/2/15,18:01,35-16.63N,140-40.68E,37,18.078,
1083,2023/2/15,18:02,35-16.87N,140-40.90E,37,18.08,
1084,2023/2/15,18:03,35-17.10N,140-41.10E,35,18.075,
1085,2023/2/15,18:04,35-17.31N,140-41.27E,33,18.072,
1086,2023/2/15,18:05,35-17.56N,140-41.47E,32,18.083,
1087,2023/2/15,18:06,35-17.80N,140-41.66E,33,18.084,
1088,2023/2/15,18:07,35-18.04N,140-41.85E,32,18.089,
1089,2023/2/15,18:08,35-18.28N,140-42.02E,29,18.094,
1090,2023/2/15,18:09,35-18.50N,140-42.17E,28,18.091,
1091,2023/2/15,18:10,35-18.75N,140-42.31E,24,18.098,
1092,2023/2/15,18:11,35-19.01N,140-42.47E,25,18.103,
1093,2023/2/15,18:12,35-19.27N,140-42.62E,25,18.1,
1094,2023/2/15,18:13,35-19.56N,140-42.78E,24,18.108,
1095,2023/2/15,18:14,35-19.81N,140-42.93E,25,18.11,
1096,2023/2/15,18:15,35-20.04N,140-43.05E,24,18.107,
1097,2023/2/15,18:16,35-20.28N,140-43.20E,25,18.108,
1098,2023/2/15,18:17,35-20.53N,140-43.34E,25,18.103,
1099,2023/2/15,18:18,35-20.78N,140-43.48E,24,18.097,
1100,2023/2/15,18:19,35-21.04N,140-43.63E,25,18.09,
1101,2023/2/15,18:20,35-21.30N,140-43.78E,25,18.08,
1102,2023/2/15,18:21,35-21.55N,140-43.92E,25,18.064,
1103,2023/2/15,18:22,35-21.82N,140-44.09E,28,18.054,
1104,2023/2/15,18:23,35-22.07N,140-44.27E,29,18.04,
1105,2023/2/15,18:24,35-22.32N,140-44.43E,28,18.026,
1106,2023/2/15,18:25,35-22.56N,140-44.59E,28,18.014,
1107,2023/2/15,18:26,35-22.80N,140-44.75E,29,18.01,
1108,2023/2/15,18:27,35-23.03N,140-44.91E,28,18.009,
1109,2023/2/15,18:28,35-23.27N,140-45.06E,28,18.012,
1110,2023/2/15,18:29,35-23.52N,140-45.23E,29,18.011,
1111,2023/2/15,18:30,35-23.73N,140-45.37E,28,18.012,
1112,2023/2/15,18:31,35-23.96N,140-45.52E,28,18.009,
1113,2023/2/15,18:32,35-24.20N,140-45.68E,29,17.998,
1114,2023/2/15,18:33,35-24.44N,140-45.84E,28,17.99,
1115,2023/2/15,18:34,35-24.69N,140-46.00E,28,17.991,
1116,2023/2/15,18:35,35-24.92N,140-46.17E,29,17.991,
1117,2023/2/15,18:36,35-25.16N,140-46.34E,30,17.992,
1118,2023/2/15,18:37,35-25.41N,140-46.51E,28,17.985,
1119,2023/2/15,18:38,35-25.65N,140-46.67E,29,17.973,
1120,2023/2/15,18:39,35-25.90N,140-46.85E,30,17.944,
1121,2023/2/15,18:40,35-26.14N,140-47.02E,29,17.926,
1122,2023/2/15,18:41,35-26.38N,140-47.19E,29,17.913,
1123,2023/2/15,18:42,35-26.62N,140-47.36E,30,17.888,
1124,2023/2/15,18:43,35-26.87N,140-47.54E,30,17.852,
1125,2023/2/15,18:44,35-27.12N,140-47.71E,29,17.785,
1126,2023/2/15,18:45,35-27.36N,140-47.88E,30,17.717,
1127,2023/2/15,18:46,35-27.60N,140-48.05E,30,17.663,
1128,2023/2/15,18:47,35-27.84N,140-48.23E,30,17.581,
1129,2023/2/15,18:48,35-28.08N,140-48.39E,29,17.493,
1130,2023/2/15,18:49,35-28.33N,140-48.58E,32,17.408,
1131,2023/2/15,18:50,35-28.56N,140-48.76E,31,17.3,
1132,2023/2/15,18:51,35-28.80N,140-48.94E,31,17.237,
1133,2023/2/15,18:52,35-29.03N,140-49.12E,33,17.229,
1134,2023/2/15,18:53,35-29.25N,140-49.31E,35,17.212,
1135,2023/2/15,18:54,35-29.47N,140-49.50E,34,17.223,
1136,2023/2/15,18:55,35-29.69N,140-49.68E,34,17.21,
1137,2023/2/15,18:56,35-29.91N,140-49.87E,35,17.16,
1138,2023/2/15,18:57,35-30.13N,140-50.06E,34,17.062,
1139,2023/2/15,18:58,35-30.35N,140-50.24E,34,17.007,
1140,2023/2/15,18:59,35-30.57N,140-50.43E,34,16.991,
1141,2023/2/15,19:00,35-30.80N,140-50.62E,36,16.98,
1142,2023/2/15,19:01,35-31.01N,140-50.81E,35,16.958,
1143,2023/2/15,19:02,35-31.23N,140-51.00E,34,16.931,
1144,2023/2/15,19:03,35-31.46N,140-51.19E,35,16.914,